Location: Unspecified
(45.6669°N, 0.0000°E)
Time: 02:30:22
(UTC+00:00)

ISS - Pass Details

Date: 24 May 2019
Orbit: 408 x 418 km, 51.6° (Epoch: 16 June)

Event Time Altitude Azimuth Distance (km) Brightness Sun altitude
Rises 20:32:59 0° 270° (W) 2,349 0.8 -9.0°
Reaches altitude 10° 20:35:11 10° 280° (W) 1,490 0.0 -9.3°
Maximum altitude 20:38:16 34° 348° (NNW) 712 -2.0 -9.7°
Drops below altitude 10° 20:41:23 10° 55° (NE) 1,499 -1.1 -10.1°
Sets 20:43:37 0° 65° (ENE) 2,366 -0.1 -10.4°
